Mc Caysville, Georgia
Current Conditions -  °F | °C
As of 12:55 AM on Thursday 23 Oct 2014 (Local Time) from KRZR Reporting Station
Clear Clear  
Wind Chill: 39°   Ceiling: Unl
Heat Index: 39°   Visibility: 10mi
Dew Point: 37°   Wind: 0mph
Humidity: 93%   Direction: NA
Pressure: 30.18"   Gusts: NA
Location:  34.9342°N, 84.3792°W
Report Text: KRZR 230455Z AUTO 00000KT 10SM CLR 04/03 A3018 RMK
Loading
Personal Weather Stations






























Interactive Weather Map
Tropical Storm Tracking
New forecast layout! Learn more

10-Day Weather Forecast

Advertisements
Track Severe Weather on mobile